Location: Eastchurch
(51.4000°N, 0.8667°E)
Time: 17:58:18
(UTC+00:00)

Cosmos 968 Rocket - Visible Passes

Search period start: 11 April 2026 00:00
Search period end: 21 April 2026 00:00
Orbit: 736 x 765 km, 74.0° (Epoch: 11 April)

Date Brightness Start Highest point End Pass type
(mag) Time Alt. Az. Time Alt. Az. Time Alt. Az.
11 Apr 5.3 00:02:33 10° N 00:06:53 26° NE 00:08:31 22° ENE visible
11 Apr 3.6 01:43:53 10° NNW 01:48:22 59° WNW 01:48:22 59° WNW visible
11 Apr 5.8 23:20:39 10° N 23:24:06 18° NE 23:26:37 13° ENE visible
12 Apr 3.6 01:01:30 10° NNW 01:06:28 73° NE 01:06:28 73° NE visible
12 Apr 5.2 02:44:15 10° NW 02:46:20 17° WNW 02:46:20 17° WNW visible
12 Apr 6.1 22:39:06 10° N 22:41:10 12° NE 22:43:14 10° ENE visible
13 Apr 4.2 00:19:17 10° NNW 00:24:16 45° ENE 00:24:37 45° ENE visible
13 Apr 4.6 02:01:14 10° NW 02:04:29 28° WNW 02:04:29 28° WNW visible
13 Apr 5.0 23:37:09 10° N 23:41:40 29° NE 23:42:48 27° ENE visible
14 Apr 4.0 01:18:36 10° NNW 01:22:40 47° WNW 01:22:40 47° WNW visible
14 Apr 5.6 22:55:11 10° N 22:58:56 19° NE 23:01:01 16° ENE visible
15 Apr 3.6 00:36:11 10° NNW 00:40:54 73° NNW 00:40:54 73° NNW visible
15 Apr 5.5 02:19:15 10° WNW 02:20:46 14° WNW 02:20:46 14° WNW visible
15 Apr 5.9 22:13:30 10° N 22:16:03 13° NE 22:18:36 10° ENE visible
15 Apr 4.0 23:53:55 10° NNW 23:59:00 52° ENE 23:59:08 52° ENE visible
16 Apr 4.9 01:36:03 10° NW 01:39:01 25° WNW 01:39:01 25° WNW visible
16 Apr 4.7 23:11:46 10° NNW 23:16:27 33° NE 23:17:25 30° ENE visible
17 Apr 4.2 00:53:21 10° NW 00:57:17 42° WNW 00:57:17 42° WNW visible
17 Apr 5.3 22:29:45 10° N 22:33:45 22° NE 22:35:43 18° ENE visible
18 Apr 3.6 00:10:53 10° NNW 00:15:35 72° NW 00:15:35 72° NW visible
18 Apr 5.6 01:54:22 10° WNW 01:55:28 12° WNW 01:55:28 12° WNW visible
18 Apr 5.8 21:47:57 10° N 21:50:54 15° NE 21:53:51 10° ENE visible
18 Apr 3.7 23:28:34 10° NNW 23:33:44 60° ENE 23:33:54 59° ENE visible
19 Apr 5.1 01:10:54 10° NW 01:13:47 22° WNW 01:13:47 22° WNW visible
19 Apr 6.0 21:06:56 10° NNE 21:07:54 10° NNE 21:08:51 10° NE visible
19 Apr 4.5 22:46:23 10° NNW 22:51:13 37° NE 22:52:14 34° E visible
20 Apr 4.3 00:28:06 10° NW 00:32:07 38° W 00:32:07 38° W visible
20 Apr 5.2 22:04:19 10° N 22:08:33 24° NE 22:10:36 19° E visible
20 Apr 3.5 23:45:35 10° NNW 23:50:29 70° W 23:50:29 70° W visible
